Погода в Золотореченске

Россия / Забайкальский край     51°03′10″N   116°44′16″E
темп.,
°C
ветер,
м/с
пор.,
м/с
влажн.,
%
обл.,
%
осадки,
мм/ч
давл.,
гПа
погр.,
м
6 марта, сб
сб600:00−27ю12930 0.0 104319
03:00−25ю22840 0.0 104120
06:00−25ююв22880 0.0 103925
09:00−21ююв238743 0.0 103791
12:00−15ю248055 0.0 1033293
15:00−13ююз238178 0.0 1029410
18:00−16з239399 0.0 1028266
21:00−22зсз1110084 0.0 102920
7 марта, вс
вс700:00−19зюз229929 0.0 102826
03:00−20зюз2210063 0.1 102844
06:00−20з1110089 0.0 102820
09:00−15зюз119153 0.0 102926
12:00−7з13740 0.0 1027350
15:00−6зюз23770 0.0 1026422
18:00−8ююз128810 0.0 102542
21:00−13ююв22835 0.0 102621
8 марта, пн
пн800:00−13ю23860 0.0 102525
03:00−13ю22910 0.0 102424
06:00−13ю228910 0.0 102225
09:00−11ююз248755 0.0 102191
12:00−7юз2583100 0.0 1018232
15:00−6з388579 0.0 1016425
18:00−7зюз210927 0.0 1015453
21:00−9зюз4169743 0.3 1017861
9 марта, вт
вт900:00−10сз6157844 0.0 10191229
03:00−14сз5149039 0.0 1024568
06:00−19сз22890 0.0 102820
09:00−16сз12830 0.0 103178
12:00−9зсз24650 0.0 1031469
15:00−8зюз23664 0.0 1030467
18:00−10ю128199 0.0 102980
21:00−14ю237897 0.0 102829
10 марта, ср
ср1000:00−13ю31373100 0.0 1026342
03:00−13ю2787100 0.0 1024154
06:00−12юз1291100 0.0 102324
09:00−12з2395100 0.0 1023118
12:00−6зсз4108361 0.0 1022632
15:00−5сз598063 0.1 1021999
18:00−5сз498088 0.1 1024840
21:00−12сз129046 0.1 102721